User: anonymous   Login
Location: San Francisco
(37.7750°N, 122.4180°W)
Time: 16:43:55
(UTC-07:00)
Language:

GP-B - Orbit

View from above orbital plane
View from above orbital plane
View from above satellite
View from above satellite

Ground track
Ground track

The orbit data is extracted from the following two-line orbital elements,

1 28230U 04014A   16152.50221446  .00000230  00000-0  29381-4 0  9995
2 28230  89.8592 128.9718 0003440  89.0983 271.0634 14.78425667652705
Epoch (UTC): 31 May 2016 12:03:11
Eccentricity: 0.0003440
inclination: 89.8592°
perigee height: 632 km
apogee height: 637 km
right ascension of ascending node: 128.9718°
argument of perigee: 89.0983°
revolutions per day: 14.78425667
mean anomaly at epoch: 271.0634°
orbit number at epoch: 65270

The dashed part of the orbit path shows where the satellite is in the earth's shadow,  

DLR